Regional Weather Roundup
Issued by NWS

Home | Current Version | Previous Version | Text Only | Print | Product List | Glossary On
Versions: 1 2 3 4 5 6 7 8 9 10 11 12 13 14 15 16 17 18 19 20 21 22 23 24 25 26 27 28 29 30 31 32 33 34 35 36 37 38 39 40 41 42 43 44 45 46 47 48 49 50
000
ASHW40 PHFO 181243
RWRHI

WEATHER ROUNDUP FOR HAWAII
NATIONAL WEATHER SERVICE HONOLULU HI
200 AM HST SAT APR 18 2015

THIS IS AN AUTOMATED REPORT THAT HAS NOT BEEN QUALITY CONTROLLED.

NOTE..."FAIR" INDICATES FEW OR NO CLOUDS BELOW 12,000 FEET WITH NO
SIGNIFICANT WEATHER AND/OR OBSTRUCTIONS TO VISIBILITY.

* - THESE SITES REPORT LIMITED FIELDS

HIZ001>004-181300-
KAUAI-NIIHAU-

CITY           SKY/WX    TMP DP  RH WIND       PRES   REMARKS
LIHUE APT      PTCLDY    74  66  76 E16       30.13F
PORT ALLEN*      N/A     73 N/A N/A E16G22      N/A
POIPU*           N/A     75 N/A N/A NE9G18      N/A
PRINCEVILLE*     N/A     72 N/A N/A MISG        N/A
KOKOLE POINT*  NOT AVBL
MOLOAA DAIRY*  NOT AVBL
WAIMEA HTS*      N/A     70  63  78 NE3G9       N/A
PUU OPAE*        N/A     63  57  82 NE3         N/A
PUU LUA*       NOT AVBL
MAKAHA RIDGE*    N/A     66  59  77 E1          N/A
$$

HIZ005>011-181300-
OAHU-

CITY           SKY/WX    TMP DP  RH WIND       PRES   REMARKS
HONOLULU       PTCLDY    74  64  71 NE13      30.09F
KALAELOA       CLEAR     72  62  71 VRB3      30.11F
KANEOHE MCB    MOCLDY    75  66  73 E13G21    30.08F
WHEELER FIELD    N/A    N/A N/A N/A MISG        N/A
BELLOWS*         N/A    N/A N/A N/A NE21        N/A
KAHUKU*          N/A    N/A N/A N/A E9G20       N/A
WHEELER*       NOT AVBL
WAIANAE HARBOR NOT AVBL
DILLINGHAM*      N/A     66  61  82 MISG        N/A
KAHUKU TRN*      N/A     79  70  73 E9G21       N/A
KAWAILOA*        N/A     68  61  77 E12G21      N/A
KII*             N/A     75  66  73 E15G22      N/A
MAKUA RANGE*     N/A     75  59  57 E12G17      N/A
OAHU FOREST NW   N/A    N/A N/A N/A CALM        N/A
SCHOFIELD BRK*   N/A     79  72  78 NW1         N/A
SCHOFIELD S*   NOT AVBL
WAIANAE VLY*     N/A     72  59  64 NE12G26     N/A
KUAOKALA*        N/A    N/A N/A N/A NE16G26     N/A
HONOULIUULI*   NOT AVBL
MOKUOLOE IS*     N/A    N/A N/A N/A MISG        N/A
PALEHUA*         N/A     63  59  88 NE14G26     N/A
WAIAWA PHB*    NOT AVBL
$$

HIZ012>013-181300-
MOLOKAI-

CITY           SKY/WX    TMP DP  RH WIND       PRES   REMARKS
MOLOKAI AIRPT  CLEAR     72  65  78 NE12G18   30.08F
KALAUPAPA      NOT AVBL
MAKAPULAPAI*     N/A     73  66  78 E22G35      N/A
MOLOKAI 1*       N/A     63  55  77 W2G9        N/A
PUU ALII*        N/A     56  55  97 SE3G14      N/A
$$

HIZ016-181300-
KAHOOLAWE-

CITY           SKY/WX    TMP DP  RH WIND       PRES   REMARKS
KAHOOLAWE*       N/A     68 N/A N/A E22G31      N/A
HAKIOAWA*        N/A     69  63  81 MISG        N/A
HONOKANAIA*      N/A     76  67  72 NE14G26   30.09F
KANELOA*         N/A     73  68  83 MISG      29.32S
KEALIALALO*      N/A     72  64  78 E14G35    30.08
LUA MAKIKA*    NOT AVBL
$$

HIZ014>015-181300-
LANAI-

CITY           SKY/WX    TMP DP  RH WIND       PRES   REMARKS
LANAI CITY     FAIR      64  61  90 NE6       30.13F
LANAI 1*         N/A     70  70 100 NE13G25     N/A
$$

HIZ017>028-181300-
MAUI-

CITY           SKY/WX    TMP DP  RH WIND       PRES   REMARKS
KAHULUI        PTCLDY    73  65  75 NE15G21   30.08F
KAPALUA-W MAUI NOT AVBL
HANA AIRPORT   CLOUDY    73  66  78 E10       30.13F
HANA*            N/A     73 N/A N/A SE6G13      N/A
HALEAKALA SUMM   N/A     41  14  33 E17         N/A
MAALAEA BAY*   NOT AVBL
HALEAKALA*     NOT AVBL
KAUPO GAP*       N/A     75  72  88 N6G26       N/A
KULA 1*          N/A    N/A N/A N/A E5          N/A
$$

HIZ023>026-181300-
BIG ISLAND OF HAWAII COAST AND LOWER SLOPES-

CITY           SKY/WX    TMP DP  RH WIND       PRES   REMARKS
KAILUA KONA    CLEAR     74  64  71 NE3       30.03F
HILO           CLOUDY    68  64  87 SE7       30.12F
HONOKAA*       NOT AVBL
KAWAIHAE MWT*    N/A     77 N/A N/A E16G25      N/A
KAWAIHAE*        N/A     81 N/A N/A E18G25      N/A
SOUTH POINT*     N/A     68 N/A N/A NE17G25     N/A
UPOLU AIRPORT* NOT AVBL
KAMUELA*       CLOUDY    61  61 100 NE16      30.15F
HAKALAU*         N/A     46  46 100 SW3         N/A
KALOKO-HONOKO*   N/A     73  63  68 SE3       30.02F
PALI 2*          N/A     61  55  82 VRB14G23    N/A
KEALAKOMO*       N/A     73  64  73 NE12G18     N/A
KAUPULEHU*       N/A     66  57  72 SE8         N/A
KAPAPALA*        N/A     62  55  76 CALM        N/A
LOWER KAHUKU*    N/A     59  54  82 N3G12       N/A
PUHE CS*         N/A     77  54  44 E12G26      N/A
PUHO CS*         N/A     73  62  67 NE3         N/A
PTA KEAMUKU*     N/A     57  54  88 CALM        N/A
WAIKOLOA*        N/A     68  55  64 E16G23      N/A
$$

HIZ027>028-181300-
BIG ISLAND OF HAWAII INTERIOR AND SUMMMITS-

CITY           SKY/WX    TMP DP  RH WIND       PRES   REMARKS
BRADSHAW FIELD PTCLDY    48  46  92 SE6       30.36S
MK VISITOR CEN NOT AVBL
MAUNA KEA*       N/A     34 -20   9 SE17        N/A  WCI  23
MAUNA LOA*       N/A     37   0  20 MISG        N/A
MAUNA LOA 1*   NOT AVBL
PTA KIPUKA*      N/A     54  54 100 SE2G8       N/A
PTA RANGE 17*    N/A     52  48  87 SE12G23     N/A
PTA WEST*        N/A     75  64  69 E22G29      N/A
NENE CABIN*      N/A     45  37  76 N5          N/A
AHUMOA*          N/A     46  39  76 E7          N/A
PTA PORTABLE*  NOT AVBL
PUU MALI*        N/A     54  37  54 CALM        N/A
$$

HIC003-181300-
NORTHWEST ISLANDS-

CITY           SKY/WX    TMP DP  RH WIND       PRES   REMARKS
MIDWAY ISLAND  CLOUDY    70  68  94 CALM      30.19S
MIDWAY NOS*    NOT AVBL
FRENCH FRIGATE NOT AVBL
$$

PHZ110>124-180-181300-
BUOY REPORTS

STATION/POSITION TIME  TEMP    WIND        PRES    WAVE   SWELL
                       AIR SEA DIR/SP/G            HT/PER HT/DIR
                 (UTC) (F)     (DEG/KT/KT) (MB)    (FT/S) (FT/D)
BUOY 51001       NOT AVBL
BUOY 51101       1200   73 73   90/ 14/ 16 1020.6F   6/12   5/320
BUOY 51100       1100   74     110/ 12     1022.0F
BUOY 51002       1200   78 78   90/ 21/ 25 1015.6F  10/ 9   5/ 80
BUOY 51003       1200   77 78  100/ 14/ 16 1017.6F   7/ 7   7
BUOY 51004       1054   76 77   60/ 17/ 21 1016.1F  10/10   7/ 80
BARBERS PT BUOY  NOT AVBL
WAIMEA BAY BUOY  1200      76                N/A     7/12
KAILUA BAY BUOY  1200      76                N/A     7/ 7   2/ 10
LANAI BUOY       1200      78                N/A     3/13   2/220
BARBERS PT 2     1200      78                N/A     5/13   2/190
PAUWELA MAUI     1200      76                N/A     7/ 9
HILO             1200      77                N/A     8/ 9   3/340
KANEOHE BAY BUOY 1200      76                N/A     6/ 7   2/340
HANALEI KAUAI    1200      76                N/A     7/11   3/320
KAHULUI HARBOR   1200   74 77   40/ 12/ 16 1018.6F
HONOLULU HARBOR  1200   76 77  100/  4/ 10 1018.9F
KILO NALU        NOT AVBL
HILO HARBOR      1200   69 77  210/  6/ 11 1019.3F
MOKUOLOE         1200   76 77  100/ 11/ 16 1019.7F
NAWILIWILI       1200   75 78   60/ 13/ 19 1019.6F
WHOTS BUOY       NOT AVBL
BUOY 51028       NOT AVBL
$$

......................KEY........................................
  SKY/WX - SKY CONDITIONS/PRESENT WEATHER
  TMP    - TEMPERATURE IN FAHRENHEIT
  DWPT   - DEWPOINT IN FAHRENHEIT
  RH     - RELATIVE HUMIDITY IN PERCENT
  WIND   - DIRECTION AND SPEED /MPH FOR ISLANDS...KTS FOR BUOYS/
  PRES   - MEAN SEA LEVEL PRESSURE IN INCHES OF HG
  VSB    - VISIBILITY IN MILES
  HX     - HEAT INDEX
  WCI    - WIND CHILL INDEX
  VRB    - VARIABLE WIND DIRECTION
  N/A    - NOT AVAILABLE



USA.gov is the U.S. government's official web portal to all federal, state and local government web resources and services.